Regional Weather Roundup
Issued by NWS

Home | Current Version | Previous Version | Graphics & Text | Print | Product List | Glossary On
Versions: 1 2 3 4 5 6 7 8 9 10 11 12 13 14 15 16 17 18 19 20 21 22 23 24 25 26 27 28 29 30 31 32 33 34 35 36 37 38 39 40 41 42 43 44 45 46 47 48 49 50
853
ASUS45 KSLC 252010
RWRUT

UTAH REGIONAL WEATHER ROUNDUP
NATIONAL WEATHER SERVICE SALT LAKE CITY UT
100 PM MST SAT FEB 25 2017

UTZ001>011-023>025-252100-

NORTHERN UTAH

CITY           SKY/WX    TMP DP  RH WIND       PRES   REMARKS
BRIGHAM CITY     N/A     31  20  64 W7        30.07F WCI  24
HILL AFB       PTSUNNY   28  18  64 S13       30.03F WCI  18
LOGAN          LGT SNOW  30  21  69 NE5       30.05F WCI  25
OGDEN          CLOUDY    29  18  63 SW12      30.04F WCI  19
SALT LAKE CITY PTSUNNY   31  21  66 S9        30.07F WCI  23
TOOELE VALLEY  MOSUNNY   34  18  51 S5        30.07F WCI  30
WENDOVER       MOSUNNY   36  16  44 E7        30.06F WCI  30
HEBER CITY     LGT SNOW  19  12  73 CALM      30.01F
WEST JORDAN    MOSUNNY   31  25  77 S9        30.07F WCI  23

$$

UTZ011>015-024>027-252100-

CENTRAL/NORTHEAST UTAH

CITY           SKY/WX    TMP DP  RH WIND       PRES   REMARKS
PROVO AIRPORT  PTSUNNY   28  15  58 CALM      30.09F
MOAB/CANYONLAN SUNNY     39   7  26 VRB5      30.01F
DELTA          PTSUNNY   30  14  51 CALM      30.05F
PRICE          PTSUNNY   27   8  44 S3        29.99F
RICHFIELD      PTSUNNY   34  18  51 N7        30.03F WCI  28
ROOSEVELT      PTSUNNY   27  16  63 CALM      30.04F
VERNAL         CLOUDY    22  14  71 CALM      30.01F

$$

UTZ013>016-019>022-027-252100-

SOUTHERN UTAH

CITY           SKY/WX    TMP DP  RH WIND       PRES   REMARKS
BRYCE CANYON   CLOUDY    28   6  39 NE5       29.97F WCI  23
CEDAR CITY     MOSUNNY   39  11  31 MISG      29.98F
MILFORD        CLOUDY    37  16  42 SW12      30.01F WCI  29
ST GEORGE      MOCLDY    45  18  34 CALM      30.06F
HANKSVILLE     SUNNY     41   3  20 SW5       30.04F
KANAB          SUNNY     43  12  28 SW8       30.05F
BLANDING       MOSUNNY   36   5  28 S5        30.08F WCI  32

$$

REGIONAL REPORTS     COLORADO/ARIZONA

CITY           SKY/WX    TMP DP  RH WIND       PRES   REMARKS
CRAIG, CO      CLOUDY    24   5  44 W24G32    29.96F WCI   8
GRAND JUNCTION PTSUNNY   33  13  43 NW6       30.02F WCI  28
RIFLE, CO      CLOUDY    29  11  47 W9        30.01F WCI  20
MONTROSE, CO   NOT AVBL
CORTEZ, CO     CLOUDY    36   6  28 W9        30.01F WCI  29
COLORADO CITY    N/A     45  16  31 W7        30.05F
PAGE, AZ       SUNNY     42   4  20 N9        30.02F
GRAND CANYON   MOSUNNY   39  10  30 SW20G25   30.01F WCI  29
KINGMAN, AZ    SUNNY     55  -2   9 SW17G24   30.04F
FLAGSTAFF, AZ  SUNNY     40   5  23 SW16G28   30.01F WCI  31

$$

REGIONAL REPORTS    NEVADA/IDAHO/WYOMING

CITY           SKY/WX    TMP DP  RH WIND       PRES   REMARKS
LAS VEGAS, NV  PTSUNNY   51  15  23 N7        30.04F
ELY, NY        CLOUDY    28  15  58 CALM      30.01F
ELKO, NV       CLOUDY    29  13  51 CALM      30.05F
POCATELLO, ID  MOSUNNY   23  15  71 W10       30.05F WCI  12
BURLEY, ID     SUNNY     32  16  51 W12G20    30.06F WCI  23
FORT BRIDGER,    N/A     20  11  67 W23G31    29.93F WCI   3
EVANSTON, WY   PTSUNNY   18   8  65 W22       29.91F WCI   1
ROCK SPRINGS,  CLOUDY    17   7  64 W20       29.90F WCI   1

$$




USA.gov is the U.S. government's official web portal to all federal, state and local government web resources and services.